This is the latest recevied weather packets stored in our database for station/object N5CSU. If no packets are shown the sender has not sent any weather packets the latest 10 day(s).
| Time | Temp. | Humidity | Pressure | Rain* | Wind** | Luminosity | Snow |
|---|---|---|---|---|---|---|---|
| 1777914964 | 24.44° C | 53% | 1012.2 hPa | 0 mm | - | 40 W/m² | - |
| 1777914661 | 24.44° C | 52% | 1012.2 hPa | 0 mm | - | 129 W/m² | - |
| 1777914357 | 24.44° C | 53% | 1012.4 hPa | 0 mm | - | 71 W/m² | - |
| 1777914055 | 23.89° C | 53% | 1012.8 hPa | 0 mm | - | 170 W/m² | - |
| 1777913750 | 23.89° C | 51% | 1012.8 hPa | 0 mm | - | 108 W/m² | - |
| 1777913448 | 23.89° C | 52% | 1012.9 hPa | 0 mm | - | 50 W/m² | - |
| 1777913144 | 23.89° C | 56% | 1012.9 hPa | 0 mm | - | 35 W/m² | - |
| 1777912840 | 23.33° C | 54% | 1013 hPa | 0 mm | - | 119 W/m² | - |
| 1777912537 | 23.33° C | 56% | 1013 hPa | 0 mm | - | 275 W/m² | - |
| 1777912233 | 23.33° C | 55% | 1013.1 hPa | 0 mm | - | 153 W/m² | - |
| 1777911929 | 23.33° C | 56% | 1013.1 hPa | 0 mm | - | 124 W/m² | - |
| 1777911626 | 22.78° C | 61% | 1013.2 hPa | 0 mm | - | 90 W/m² | - |
| 1777911322 | 22.78° C | 58% | 1013.2 hPa | 0 mm | - | 52 W/m² | - |
| 1777911020 | 22.78° C | 57% | 1013.4 hPa | 0 mm | - | 84 W/m² | - |
| 1777910717 | 22.78° C | 58% | 1013.3 hPa | 0 mm | - | 463 W/m² | - |
| 1777910414 | 22.78° C | 59% | 1013.3 hPa | 0 mm | - | 409 W/m² | - |
| 1777910110 | 22.78° C | 60% | 1013.5 hPa | 0 mm | - | 100 W/m² | - |
| 1777909808 | 22.22° C | 60% | 1013.4 hPa | 0 mm | - | 19 W/m² | - |
| 1777909504 | 22.22° C | 62% | 1013.3 hPa | 0 mm | - | 22 W/m² | - |
| 1777909201 | 22.22° C | 65% | 1013.3 hPa | 0 mm | - | 24 W/m² | - |
| 1777908899 | 21.67° C | 64% | 1013.4 hPa | 0 mm | - | 18 W/m² | - |
| 1777908597 | 21.67° C | 66% | 1013.4 hPa | 0 mm | - | 19 W/m² | - |
| 1777908293 | 21.67° C | 65% | 1013.3 hPa | 0 mm | - | 20 W/m² | - |
| 1777907989 | 21.11° C | 65% | 1013.4 hPa | 0 mm | - | 16 W/m² | - |
| 1777907685 | 21.67° C | 64% | 1013.6 hPa | 0 mm | - | 18 W/m² | - |
* Rain latest hour (hover to see other rain measurements)
** Current wind speed in m/s (hover to see current wind gust speed)